Starlink 34325

operational
NORAD ID: 64262 Int'l Des: 2025-120 Owner: SPXS Country: US Constellation: starlink
LEOCIRCULAR

关于 Starlink 34325

正在加载描述...

实时位置

正在加载3D地球...

即将过境

高度历史

Altitude vs Time

uPlot chart will show altitude changes over time

两行轨道根数

1 64262U 25120G 25260.22015558 .00030981 00000-0 10541-2 0 9997
2 64262 53.1596 202.6923 0001556 83.4159 276.7019 15.30191450 17359
Epoch: Sep 17, 2025 • Age: 45 hours

当前状态

高度 475.5 km
速度 7.63 km/s
星下点 2.33°N, 15.08°W
发射日期 Jun 4, 2025
运行时间 0.2 years
类型 internet

技术详情

分类 Payload
质量 575.00 kg
干质量 530.00 kg
总质量 575.00 kg
长度 0.30 m
直径 4.10 m
跨度 29.00 m
形状 Box + pan
制造商 SPXS
平台类型 Starlink V2MO
阶段状态 In Orbit
所有者/国家 SPXS/US

大型星座

Loading constellations...